Content
SEND FEEDBACK

Daily
Averages
Monthly
Summary
France

PORT-EN-BESSIN-HUPPAIN, FRANCE


Home > Europe > France
Elevation: 239 feet     Latitude: 49 21N     Longitude: 000 46W

WEATHER
 
SELECT A DAY
Number of Records: 215,135;   Date Range: 7/1/96 - 7/20/14
 
SHARE

PRINT THIS DATA

[ ← Previous Day ]
WEATHER ALMANAC - FEBRUARY 20, 2013
[ Next Day → ]
[ °C ]   °F
Weather ElementAverageHighLow
Temperature36 °F46.4 °F (3:00 pm)26.6 °F (6:30 am)
Dewpoint30.7 °F35.6 °F (1:30 pm)24.8 °F (6:30 am)
Humidity81.6 %100 % (4:00 am)63 % (7:00 pm)
Barometer30.09 in30.13 in (1:00 pm)30.04 in (12:30 am)
Wind Speed7 mph16.1 mph (3:30 pm)
Weather ElementAverage
Visibility3.9 mi
Wind DirectionENE (60.2 °)

Weather ElementTotal
Precipitation---
Heating Degree Days28.5 (Base 65)
Averaged from 49 records on February 20, 2013
WEATHER CONDITIONS BREAKOUT
WIND DIRECTION BREAKOUT
WEATHER BY HOUR - FEBRUARY 20, 2013
[ °C ]   °F
Local TimeTemperatureDewpointHumidityBarometerVisibilityWind DirectionWind SpeedGust SpeedPrecipitationEventsConditions
12:30 AM32.0 °F30.2 °F93 %30.04 inCalmMist
1:30 AM33.8 °F30.2 °F87 %30.06 in3.1 miCalmMist
2:00 AM32.0 °F30.2 °F93 %30.06 inCalmMist
2:30 AM30.2 °F28.4 °F93 %30.06 inCalmMist
3:00 AM30.2 °F28.4 °F93 %30.06 inCalmMist
3:30 AM30.2 °F28.4 °F93 %30.06 inCalmMist
4:00 AM28.4 °F28.4 °F100 %30.06 in1.7 miCalmMist
4:30 AM30.2 °F28.4 °F93 %30.06 in1.7 miCalmMist
5:00 AM30.2 °F28.4 °F93 %30.06 in0.9 miCalmMist
5:30 AM30.2 °F28.4 °F93 %30.06 in1.6 miCalmMist
6:00 AM28.4 °F28.4 °F100 %30.06 in0.9 miCalmMist
6:30 AM26.6 °F24.8 °F93 %30.06 in1.3 miCalmMist
7:00 AM26.6 °F26.6 °F100 %30.06 in1.2 miCalmMist
7:00 AM28.0 °F26.0 °F90 %30.11 in2.0 miCalmMist
7:30 AM26.6 °F24.8 °F93 %30.06 in1.2 miCalmMist
8:00 AM28.4 °F26.6 °F93 %30.09 in1.6 miCalmMist
8:30 AM28.4 °F26.6 °F93 %30.09 in1.7 miCalmMist
9:00 AM30.2 °F30.2 °F100 %30.09 in1.7 miEast (90°)4.6 mphMist
9:30 AM32.0 °F30.2 °F93 %30.09 in1.4 miSE (130°)4.6 mphMist
10:00 AM33.8 °F32.0 °F93 %30.09 in1.4 miESE (110°)4.6 mphMist
10:30 AM35.6 °F32.0 °F87 %30.09 in1.7 miEast (100°)6.9 mphMist
11:00 AM37.4 °F33.8 °F87 %30.09 inEast (100°)10.4 mphMist
11:30 AM39.2 °F33.8 °F81 %30.09 inEast (100°)13.8 mphMist
12:00 PM41.0 °F33.8 °F76 %30.09 in3.1 miEast (100°)12.7 mphMist
12:30 PM42.8 °F33.8 °F70 %30.09 in3.1 miESE (110°)15.0 mphMist
1:00 PM43.0 °F35.0 °F66 %30.13 in3.0 miEast (100°)11.5 mphClear
1:00 PM42.8 °F33.8 °F70 %30.09 in3.1 miEast (100°)11.5 mphMist
1:30 PM42.8 °F35.6 °F76 %30.09 inEast (90°)11.5 mphPartly Cloudy
2:00 PM42.8 °F35.6 °F76 %30.09 in3.1 miEast (80°)12.7 mphMostly Cloudy
2:30 PM44.6 °F35.6 °F71 %30.09 in4.3 miEast (90°)11.5 mphMostly Cloudy
3:00 PM46.4 °F35.6 °F66 %30.09 in6.2 miEast (100°)15.0 mphPartly Cloudy
3:30 PM44.6 °F35.6 °F71 %30.09 in6.2 miEast (100°)16.1 mphMostly Cloudy
4:00 PM46.4 °F35.6 °F66 %30.09 in6.2 miEast (100°)12.7 mphPartly Cloudy
4:30 PM44.6 °F35.6 °F71 %30.06 in6.2 miEast (80°)12.7 mphMostly Cloudy
5:00 PM42.8 °F33.8 °F70 %30.06 in6.2 miEast (80°)12.7 mphMostly Cloudy
5:30 PM42.8 °F32.0 °F66 %30.06 in6.2 miEast (100°)12.7 mphPartly Cloudy
6:00 PM42.8 °F32.0 °F66 %30.09 in6.2 miEast (90°)10.4 mph
6:30 PM41.0 °F30.2 °F65 %30.09 in6.2 miEast (90°)9.2 mph
7:00 PM39.0 °F31.0 °F63 %30.12 in6.0 miEast (90°)6.9 mphClear
7:00 PM39.2 °F30.2 °F70 %30.09 in6.2 miEast (80°)6.9 mph
7:30 PM39.2 °F30.2 °F70 %30.09 in6.2 miEast (80°)8.1 mph
8:00 PM39.2 °F30.2 °F70 %30.09 in6.2 miENE (70°)10.4 mph
8:30 PM37.4 °F30.2 °F75 %30.12 in6.2 miENE (70°)11.5 mph
9:00 PM37.4 °F30.2 °F75 %30.12 in6.2 miENE (70°)10.4 mph
9:30 PM35.6 °F30.2 °F81 %30.12 in5.6 miENE (70°)10.4 mph
10:00 PM35.6 °F28.4 °F75 %30.12 in5.0 miEast (80°)12.7 mph
10:30 PM35.6 °F28.4 °F75 %30.12 in5.6 miEast (80°)11.5 mph
11:00 PM33.8 °F28.4 °F81 %30.12 in5.6 miEast (80°)9.2 mph
11:30 PM33.8 °F28.4 °F81 %30.12 in5.6 miEast (80°)10.4 mph
Hourly data recorded from LFRK, located miles away from Port-en-Bessin-Huppain, France







STORIES FROM OUR PARTNERS